H1 CPF 1 NER 2017 3 19 9 5781 glonass106 H2 0705201 9106 32275 2017 3 19 0 0 0 2017 3 22 23 45 0 900 1 1 0 0 0 H9 10 0 57831 0.00000 0 -7970474.006 8802086.088 -22569760.546 10 0 57831 900.00000 0 -8904064.491 6138870.219 -23095447.175 10 0 57831 1800.00000 0 -10049910.939 3519284.603 -23172326.886 10 0 57831 2700.00000 0 -11380577.426 1009124.077 -22798880.994 10 0 57831 3600.00000 0 -12857569.025 -1331802.877 -21982342.683 10 0 57831 4500.00000 0 -14432850.732 -3451934.891 -20738558.522 10 0 57831 5400.00000 0 -16050785.519 -5309866.917 -19091682.709 10 0 57831 6300.00000 0 -17650411.044 -6875829.033 -17073709.545 10 0 57831 7200.00000 0 -19167959.867 -8132673.967 -14723852.922 10 0 57831 8100.00000 0 -20539517.666 -9076333.073 -12087784.512 10 0 57831 9000.00000 0 -21703707.820 -9715722.790 -9216745.187 10 0 57831 9900.00000 0 -22604289.345 -10072106.577 -6166546.946 10 0 57831 10800.00000 0 -23192558.589 -10177940.434 -2996484.830 10 0 57831 11700.00000 0 -23429453.204 -10075251.859 231819.715 10 0 57831 12600.00000 0 -23287269.357 -9813621.854 3455620.961 10 0 57831 13500.00000 0 -22750919.461 -9447856.401 6612272.591 10 0 57831 14400.00000 0 -21818677.111 -9035446.919 9640448.539 10 0 57831 15300.00000 0 -20502377.659 -8633928.001 12481336.649 10 0 57831 16200.00000 0 -18827065.793 -8298244.942 15079781.574 10 0 57831 17100.00000 0 -16830104.810 -8078242.835 17385354.586 10 0 57831 18000.00000 0 -14559784.853 -8016383.681 19353329.539 10 0 57831 18900.00000 0 -12073488.202 -8145787.997 20945546.400 10 0 57831 19800.00000 0 -9435488.011 -8488683.559 22131146.227 10 0 57831 20700.00000 0 -6714471.959 -9055326.579 22887163.916 10 0 57831 21600.00000 0 -3980893.373 -9843440.732 23198968.080 10 0 57831 22500.00000 0 -1304259.177 -10838197.747 23060540.191 10 0 57831 23400.00000 0 1249533.478 -12012740.612 22474588.120 10 0 57831 24300.00000 0 3620702.400 -13329227.939 21452492.215 10 0 57831 25200.00000 0 5757824.528 -14740356.279 20014085.047 10 0 57831 26100.00000 0 7619726.964 -16191297.309 18187268.888 10 0 57831 27000.00000 0 9176947.522 -17621969.436 16007477.959 10 0 57831 27900.00000 0 10412705.097 -18969549.334 13516995.268 10 0 57831 28800.00000 0 11323340.481 -20171118.618 10764136.718 10 0 57831 29700.00000 0 11918210.181 -21166334.996 7802317.682 10 0 57831 30600.00000 0 12219038.636 -21900015.906 4689019.618 10 0 57831 31500.00000 0 12258756.769 -22324525.916 1484676.530 10 0 57831 32400.00000 0 12079876.463 -22401867.202 -1748497.287 10 0 57831 33300.00000 0 11732470.065 -22105384.577 -4947715.430 10 0 57831 34200.00000 0 11271840.710 -21421012.605 -8050839.720 10 0 57831 35100.00000 0 10755982.378 -20348011.496 -10997588.705 10 0 57831 36000.00000 0 10242937.483 -18899159.895 -13730710.502 10 0 57831 36900.00000 0 9788164.114 -17100395.557 -16197096.796 10 0 57831 37800.00000 0 9442024.636 -14989918.063 -18348816.150 10 0 57831 38700.00000 0 9247502.119 -12616790.261 -20144046.469 10 0 57831 39600.00000 0 9238241.425 -10039096.178 -21547888.445 10 0 57831 40500.00000 0 9436998.005 -7321731.589 -22533044.362 10 0 57831 41400.00000 0 9854560.231 -4533918.630 -23080349.268 10 0 57831 42300.00000 0 10489191.155 -1746547.408 -23179144.339 10 0 57831 43200.00000 0 11326613.759 970545.434 -22827485.355 10 0 57831 44100.00000 0 12340540.905 3551248.685 -22032182.261 10 0 57831 45000.00000 0 13493728.337 5935688.506 -20808668.898 10 0 57831 45900.00000 0 14739507.073 8072476.556 -19180705.255 10 0 57831 46800.00000 0 16023731.322 9920601.453 -17179917.625 10 0 57831 47700.00000 0 17287060.395 11450885.422 -14845185.280 10 0 57831 48600.00000 0 18467478.893 12646946.230 -12221885.227 10 0 57831 49500.00000 0 19502949.134 13505625.149 -9361009.430 10 0 57831 50400.00000 0 20334083.980 14036863.992 -6318171.666 10 0 57831 51300.00000 0 20906727.110 14263037.565 -3152523.395 10 0 57831 52200.00000 0 21174331.526 14217770.830 74400.022 10 0 57831 53100.00000 0 21100035.466 13944291.783 3299879.698 10 0 57831 54000.00000 0 20658347.644 13493390.787 6461236.372 10 0 57831 54900.00000 0 19836370.235 12921073.629 9497051.919 10 0 57831 55800.00000 0 18634507.636 12286008.435 12348364.863 10 0 57831 56700.00000 0 17066630.754 11646875.131 14959816.290 10 0 57831 57600.00000 0 15159689.557 11059730.001 17280723.752 10 0 57831 58500.00000 0 12952789.830 10575496.918 19266062.280 10 0 57831 59400.00000 0 10495772.482 10237691.238 20877333.869 10 0 57831 60300.00000 0 7847354.305 10080472.185 22083309.081 10 0 57831 61200.00000 0 5072907.352 10127105.510 22860627.051 10 0 57831 62100.00000 0 2241968.746 10388900.857 23194243.036 10 0 57831 63000.00000 0 -574416.339 10864668.253 23077715.524 10 0 57831 63900.00000 0 -3306408.984 11540716.411 22513327.896 10 0 57831 64800.00000 0 -5888036.509 12391392.962 21512042.637 10 0 57831 65700.00000 0 -8259688.886 13380144.151 20093289.074 10 0 57831 66600.00000 0 -10370348.997 14461049.911 18284588.590 10 0 57831 67500.00000 0 -12179465.269 15580770.353 16121024.197 10 0 57831 68400.00000 0 -13658389.882 16680822.516 13644564.160 10 0 57831 69300.00000 0 -14791323.600 17700092.218 10903252.219 10 0 57831 70200.00000 0 -15575728.750 18577475.774 7950279.479 10 0 57831 71100.00000 0 -16022193.937 19254540.684 4842955.425 10 0 57831 72000.00000 0 -16153756.869 19678093.229 1641597.770 10 0 57831 72900.00000 0 -16004714.448 19802544.546 -1591637.499 10 0 57831 73800.00000 0 -15618970.792 19591974.983 -4793963.140 10 0 57831 74700.00000 0 -15047993.315 19021809.012 -7903180.979 10 0 57831 75600.00000 0 -14348463.598 18080029.242 -10858891.569 10 0 57831 76500.00000 0 -13579722.640 16767877.393 -13603669.321 10 0 57831 77400.00000 0 -12801118.750 15100011.687 -16084179.882 10 0 57831 78300.00000 0 -12069370.388 13104112.900 -18252217.839 10 0 57831 79200.00000 0 -11436055.550 10819954.501 -20065644.510 10 0 57831 80100.00000 0 -10945333.830 8297974.744 -21489207.549 10 0 57831 81000.00000 0 -10631997.410 5597409.421 -22495226.585 10 0 57831 81900.00000 0 -10519933.227 2784062.177 -23064131.807 10 0 57831 82800.00000 0 -10621061.283 -72195.462 -23184845.149 10 0 57831 83700.00000 0 -10934793.953 -2900091.123 -22854996.862 10 0 57831 84600.00000 0 -11448039.279 -5629675.540 -22080973.274 10 0 57831 85500.00000 0 -12135748.382 -8194990.749 -20877794.720 10 0 57832 0.00000 0 -12961984.230 -10536572.273 -19268825.846 10 0 57832 900.00000 0 -13881467.183 -12603681.768 -17285323.286 10 0 57832 1800.00000 0 -14841532.170 -14356178.143 -14965829.840 10 0 57832 2700.00000 0 -15784415.563 -15765948.791 -12355425.657 10 0 57832 3600.00000 0 -16649775.070 -16817843.385 -9504851.398 10 0 57832 4500.00000 0 -17377336.280 -17510070.725 -6469520.066 10 0 57832 5400.00000 0 -17909553.836 -17854043.629 -3308436.879 10 0 57832 6300.00000 0 -18194174.403 -17873679.242 -83048.400 10 0 57832 7200.00000 0 -18186592.630 -17604185.318 3143956.097 10 0 57832 8100.00000 0 -17851899.997 -17090384.807 6309867.201 10 0 57832 9000.00000 0 -17166539.401 -16384650.486 9353177.520 10 0 57832 9900.00000 0 -16119495.119 -15544537.820 12214779.001 10 0 57832 10800.00000 0 -14712967.391 -14630216.811 14839111.796 10 0 57832 11700.00000 0 -12962502.735 -13701811.852 17175242.169 10 0 57832 12600.00000 0 -10896574.012 -12816762.161 19177848.513 10 0 57832 13500.00000 0 -8555627.321 -12027314.158 20808096.676 10 0 57832 14400.00000 0 -5990635.024 -11378251.262 22034388.168 10 0 57832 15300.00000 0 -3261214.726 -10904956.252 22832967.382 10 0 57832 16200.00000 0 -433391.845 -10631887.202 23188376.807 10 0 57832 17100.00000 0 2422902.014 -10571530.424 23093752.131 10 0 57832 18000.00000 0 5236491.794 -10723873.945 22550952.061 10 0 57832 18900.00000 0 7937673.343 -11076423.152 21570520.699 10 0 57832 19800.00000 0 10460867.864 -11604757.798 20171483.313 10 0 57832 20700.00000 0 12747107.244 -12273606.865 18380979.300 10 0 57832 21600.00000 0 14746248.179 -13038396.320 16233739.090 10 0 57832 22500.00000 0 16418824.020 -13847204.951 13771414.552 10 0 57832 23400.00000 0 17737458.086 -14643046.315 11041775.310 10 0 57832 24300.00000 0 18687780.345 -15366381.037 8097785.935 10 0 57832 25200.00000 0 19268809.915 -15957753.813 4996581.386 10 0 57832 26100.00000 0 19492787.938 -16360443.924 1798360.284 10 0 57832 27000.00000 0 19384468.477 -16523017.291 -1434782.659 10 0 57832 27900.00000 0 18979897.728 -16401671.918 -4640062.404 10 0 57832 28800.00000 0 18324733.376 -15962277.114 -7755223.814 10 0 57832 29700.00000 0 17472175.340 -15182019.583 -10719752.365 10 0 57832 30600.00000 0 16480595.505 -14050585.956 -13476051.517 10 0 57832 31500.00000 0 15410966.723 -12570830.815 -15970563.403 10 0 57832 32400.00000 0 14324199.787 -10758900.878 -18154810.915 10 0 57832 33300.00000 0 13278500.796 -8643808.830 -19986340.781 10 0 57832 34200.00000 0 12326860.437 -6266473.473 -21429549.289 10 0 57832 35100.00000 0 11514780.904 -3678265.094 -22456374.762 10 0 57832 36000.00000 0 10878336.103 -939115.658 -23046843.511 10 0 57832 36900.00000 0 10442646.680 1884728.386 -23189458.836 10 0 57832 37800.00000 0 10220833.852 4723218.062 -22881425.690 10 0 57832 38700.00000 0 10213495.935 7505174.981 -22128706.658 10 0 57832 39600.00000 0 10408729.474 10161015.095 -20945908.093 10 0 57832 40500.00000 0 10782694.011 12625410.516 -19355998.400 10 0 57832 41400.00000 0 11300696.654 14839779.284 -17389863.596 10 0 57832 42300.00000 0 11918750.712 16754499.826 -15085708.446 10 0 57832 43200.00000 0 12585542.591 18330758.392 -12488314.455 10 0 57832 44100.00000 0 13244723.795 19541952.879 -9648168.833 10 0 57832 45000.00000 0 13837430.998 20374594.894 -6620481.348 10 0 57832 45900.00000 0 14304927.317 20828673.030 -3464108.210 10 0 57832 46800.00000 0 14591252.637 20917462.946 -240404.191 10 0 57832 47700.00000 0 14645770.334 20666793.129 2987974.180 10 0 57832 48600.00000 0 14425502.044 20113798.269 6158290.527 10 0 57832 49500.00000 0 13897151.112 19305213.782 9208951.319 10 0 57832 50400.00000 0 13038728.569 18295284.317 12080704.923 10 0 57832 51300.00000 0 11840712.370 17143375.303 14717793.353 10 0 57832 52200.00000 0 10306690.379 15911388.840 17069034.149 10 0 57832 53100.00000 0 8453459.472 14661093.254 19088811.346 10 0 57832 54000.00000 0 6310575.929 13451478.884 20737956.638 10 0 57832 54900.00000 0 3919375.260 12336251.159 21984504.161 10 0 57832 55800.00000 0 1331501.737 11361565.964 22804304.892 10 0 57832 56700.00000 0 -1392991.841 10564101.743 23181489.496 10 0 57832 57600.00000 0 -4187895.961 9969548.515 23108771.389 10 0 57832 58500.00000 0 -6983355.051 9591576.350 22587584.655 10 0 57832 59400.00000 0 -9708533.735 9431325.854 21628054.567 10 0 57832 60300.00000 0 -12294329.086 9477441.323 20248801.374 10 0 57832 61200.00000 0 -14676017.209 9706644.733 18476581.019 10 0 57832 62100.00000 0 -16795725.269 10084826.151 16345769.418 10 0 57832 63000.00000 0 -18604627.094 10568604.613 13897699.699 10 0 57832 63900.00000 0 -20064771.697 11107293.815 11179864.717 10 0 57832 64800.00000 0 -21150469.180 11645189.900 8244999.647 10 0 57832 65700.00000 0 -21849176.743 12124084.961 5150061.935 10 0 57832 66600.00000 0 -22161848.131 12485900.179 1955128.089 10 0 57832 67500.00000 0 -22102732.331 12675327.221 -1277771.476 10 0 57832 68400.00000 0 -21698630.310 12642365.975 -4485856.890 10 0 57832 69300.00000 0 -20987641.332 12344650.799 -7606818.934 10 0 57832 70200.00000 0 -20017451.944 11749466.289 -10580030.793 10 0 57832 71100.00000 0 -18843239.917 10835366.433 -13347727.594 10 0 57832 72000.00000 0 -17525281.683 9593327.816 -15856130.380 10 0 57832 72900.00000 0 -16126364.212 8027387.022 -18056492.480 10 0 57832 73800.00000 0 -14709110.395 6154734.098 -19906047.847 10 0 57832 74700.00000 0 -13333330.548 4005256.838 -21368842.844 10 0 57832 75600.00000 0 -12053511.291 1620553.623 -22416435.518 10 0 57832 76500.00000 0 -10916547.198 -947545.257 -23028448.931 10 0 57832 77400.00000 0 -9959810.222 -3638887.216 -23192967.976 10 0 57832 78300.00000 0 -9209637.646 -6387259.460 -22906772.133 10 0 57832 79200.00000 0 -8680301.620 -9122910.361 -22175399.696 10 0 57832 80100.00000 0 -8373503.211 -11775225.947 -21013042.117 10 0 57832 81000.00000 0 -8278411.753 -14275450.880 -19442270.351 10 0 57832 81900.00000 0 -8372247.469 -16559341.261 -17493598.143 10 0 57832 82800.00000 0 -8621382.440 -18569639.143 -15204890.446 10 0 57832 83700.00000 0 -8982913.126 -20258266.030 -12620628.080 10 0 57832 84600.00000 0 -9406637.690 -21588144.132 -9791042.621 10 0 57832 85500.00000 0 -9837354.169 -22534569.568 -6771138.312 10 0 57833 0.00000 0 -10217381.858 -23086080.526 -3619620.084 10 0 57833 900.00000 0 -10489198.427 -23244784.289 -397748.397 10 0 57833 1800.00000 0 -10598081.293 -23026130.726 2831855.319 10 0 57833 2700.00000 0 -10494639.371 -22458141.355 6006430.174 10 0 57833 3600.00000 0 -10137128.899 -21580128.588 9064298.980 10 0 57833 4500.00000 0 -9493453.604 -20440959.002 11946069.013 10 0 57833 5400.00000 0 -8542764.505 -19096934.990 14595786.605 10 0 57833 6300.00000 0 -7276591.017 -17609384.501 16962022.922 10 0 57833 7200.00000 0 -5699455.105 -16042060.775 18998869.829 10 0 57833 8100.00000 0 -3828941.973 -14458461.601 20666826.809 10 0 57833 9000.00000 0 -1695223.569 -12919180.540 21933562.264 10 0 57833 9900.00000 0 659945.863 -11479400.964 22774535.049 10 0 57833 10800.00000 0 3184721.130 -10186637.271 23173464.931 10 0 57833 11700.00000 0 5819083.077 -9078817.068 23122643.605 10 0 57833 12600.00000 0 8497102.367 -8182783.683 22623080.731 10 0 57833 13500.00000 0 11149456.986 -7513280.669 21684482.618 10 0 57833 14400.00000 0 13706099.891 -7072459.837 20325064.038 10 0 57833 15300.00000 0 16098966.950 -6849932.597 18571196.729 10 0 57833 16200.00000 0 18264613.554 -6823361.733 16456901.034 10 0 57833 17100.00000 0 20146671.117 -6959568.226 14023189.978 10 0 57833 18000.00000 0 21698021.772 -7216106.260 11317277.945 10 0 57833 18900.00000 0 22882601.207 -7543239.860 8391668.671 10 0 57833 19800.00000 0 23676754.738 -7886237.686 5303139.696 10 0 57833 20700.00000 0 24070090.185 -8187889.020 2111642.708 10 0 57833 21600.00000 0 24065792.048 -8391134.402 -1120859.121 10 0 57833 22500.00000 0 23680383.960 -8441699.420 -4331594.204 10 0 57833 23400.00000 0 22942949.499 -8290619.790 -7458202.394 10 0 57833 24300.00000 0 21893844.254 -7896550.298 -10439947.671 10 0 57833 25200.00000 0 20582953.404 -7227759.149 -13218899.753 10 0 57833 26100.00000 0 19067568.200 -6263722.523 -15741061.283 10 0 57833 27000.00000 0 17409970.760 -4996250.913 -17957418.460 10 0 57833 27900.00000 0 15674828.701 -3430098.504 -19824894.590 10 0 57833 28800.00000 0 13926509.051 -1583028.650 -21307187.955 10 0 57833 29700.00000 0 12226424.083 514668.670 -22375477.858 10 0 57833 30600.00000 0 10630520.152 2821188.661 -23008985.334 10 0 57833 31500.00000 0 9187014.514 5284711.713 -23195377.750 10 0 57833 32400.00000 0 7934474.509 7845330.256 -22931009.664 10 0 57833 33300.00000 0 6900319.043 10437323.231 -22220995.266 10 0 57833 34200.00000 0 6099804.614 12991684.290 -21079110.945 10 0 57833 35100.00000 0 5535537.714 15438799.204 -19527529.671 10 0 57833 36000.00000 0 5197533.380 17711161.567 -17596392.030 10 0 57833 36900.00000 0 5063816.782 19746013.944 -15323221.900 10 0 57833 37800.00000 0 5101541.806 21487804.607 -12752197.782 10 0 57833 38700.00000 0 5268578.781 22890357.478 -9933293.616 10 0 57833 39600.00000 0 5515503.686 23918664.632 -6921305.755 10 0 57833 40500.00000 0 5787904.036 24550226.524 -3774785.030 10 0 57833 41400.00000 0 6028903.186 24775883.986 -554894.895 10 0 57833 42300.00000 0 6181795.462 24600107.427 2675781.594 10 0 57833 43200.00000 0 6192679.779 24040731.576 5854462.282 10 0 57833 44100.00000 0 6012979.462 23128147.526 8919389.572 10 0 57833 45000.00000 0 5601740.933 21903986.701 11811032.816 10 0 57833 45900.00000 0 4927613.310 20419352.802 14473245.667 10 0 57833 46800.00000 0 3970424.676 18732676.617 16854355.718 10 0 57833 47700.00000 0 2722287.858 16907284.326 18908165.214 10 0 57833 48600.00000 0 1188188.565 15008781.597 20594843.697 10 0 57833 49500.00000 0 -613969.586 13102363.125 21881695.791 10 0 57833 50400.00000 0 -2653865.713 11250160.033 22743789.839 10 0 57833 51300.00000 0 -4889787.888 9508735.564 23164435.943 10 0 57833 52200.00000 0 -7270143.001 7926832.878 23135504.858 10 0 57833 53100.00000 0 -9735388.223 6543468.128 22657582.131 10 0 57833 54000.00000 0 -12220304.695 5386447.314 21739954.889 10 0 57833 54900.00000 0 -14656519.863 4471367.704 20400431.663 10 0 57833 55800.00000 0 -16975174.465 3801144.502 18664998.666 10 0 57833 56700.00000 0 -19109624.165 3366081.501 16567318.825 10 0 57833 57600.00000 0 -20998064.137 3144481.894 14148082.743 10 0 57833 58500.00000 0 -22585967.832 3103772.907 11454223.623 10 0 57833 59400.00000 0 -23828238.652 3202096.406 8538010.763 10 0 57833 60300.00000 0 -24690984.973 3390298.069 5456038.620 10 0 57833 61200.00000 0 -25152844.307 3614230.898 2268130.778 10 0 57833 62100.00000 0 -25205801.208 3817275.461 -963820.117 10 0 57833 63000.00000 0 -24855464.544 3942969.961 -4177054.005 10 0 57833 63900.00000 0 -24120792.344 3937638.463 -7309162.964 10 0 57833 64800.00000 0 -23033275.715 3752905.494 -10299304.791 10 0 57833 65700.00000 0 -21635615.954 3347989.946 -13089386.659 10 0 57833 66600.00000 0 -19979950.412 2691680.453 -15625195.443 10 0 57833 67500.00000 0 -18125701.532 1763907.843 -17857452.549 10 0 57833 68400.00000 0 -16137139.235 556847.153 -19742772.598 10 0 57833 69300.00000 0 -14080758.862 -924498.353 -21244507.306 10 0 57833 70200.00000 0 -12022584.313 -2662257.070 -22333458.259 10 0 57833 71100.00000 0 -10025509.034 -4626195.882 -22988444.968 10 0 57833 72000.00000 0 -8146785.779 -6774754.005 -23196717.287 10 0 57833 72900.00000 0 -6435769.625 -9056561.877 -22954204.380 10 0 57833 73800.00000 0 -4932007.984 -11412382.898 -22265595.436 10 0 57833 74700.00000 0 -3663756.856 -13777397.868 -21144250.509 10 0 57833 75600.00000 0 -2646984.595 -16083737.761 -19611943.007 10 0 57833 76500.00000 0 -1884904.068 -18263159.775 -17698438.509 10 0 57833 77400.00000 0 -1368051.954 -20249755.391 -15440917.785 10 0 57833 78300.00000 0 -1074910.934 -21982577.612 -12883254.831 10 0 57833 79200.00000 0 -973047.628 -23408077.665 -10075163.686 10 0 57833 80100.00000 0 -1020717.433 -24482249.170 -7071230.503 10 0 57833 81000.00000 0 -1168867.559 -25172389.898 -3929849.761 10 0 57833 81900.00000 0 -1363452.694 -25458407.251 -712085.482 10 0 57833 82800.00000 0 -1547964.434 -25333612.645 2519519.874 10 0 57833 83700.00000 0 -1666066.510 -24804971.652 5702165.149 10 0 57833 84600.00000 0 -1664223.389 -23892799.648 8774014.595 10 0 57833 85500.00000 0 -1494210.207 -22629916.170 11675401.856 10 0 57834 0.00000 0 -1115397.191 -21060294.031 14349990.033 10 0 57834 900.00000 0 -496710.885 -19237260.163 16745865.327 10 0 57834 1800.00000 0 381809.802 -17221324.550 18816542.248 10 0 57834 2700.00000 0 1527931.160 -15077727.984 20521862.105 10 0 57834 3600.00000 0 2936659.621 -12873811.577 21828767.206 10 0 57834 4500.00000 0 4590219.974 -10676317.821 22711936.532 10 0 57834 5400.00000 0 6458577.792 -8548735.366 23154271.339 10 0 57834 6300.00000 0 8500485.233 -6548797.528 23147221.944 10 0 57834 7200.00000 0 10665007.323 -4726237.952 22690949.953 10 0 57834 8100.00000 0 12893466.010 -3120895.800 21794323.182 10 0 57834 9000.00000 0 15121721.975 -1761248.217 20474743.524 10 0 57834 9900.00000 0 17282700.003 -663430.118 18757811.000 10 0 57834 10800.00000 0 19309053.613 169219.046 16676830.191 10 0 57834 11700.00000 0 21135858.649 746063.690 14272168.091 10 0 57834 12600.00000 0 22703223.987 1088540.463 11590475.257 10 0 57834 13500.00000 0 23958710.783 1229013.936 8683784.778 10 0 57834 14400.00000 0 24859459.316 1209168.412 5608505.949 10 0 57834 15300.00000 0 25373934.372 1078004.151 2424331.889 10 0 57834 16200.00000 0 25483215.923 889523.034 -806917.914 10 0 57834 17100.00000 0 25181780.683 700201.894 -4022497.724 10 0 57834 18000.00000 0 24477741.378 566360.808 -7159954.746 10 0 57834 18900.00000 0 23392533.365 541538.186 -10158343.483 10 0 57834 19800.00000 0 21960061.342 673984.349 -12959411.337 10 0 57834 20700.00000 0 20225341.716 1004380.278 -15508732.015 10 0 57834 21600.00000 0 18242697.249 1563878.775 -17756764.488 10 0 57834 22500.00000 0 16073579.429 2372551.684 -19659816.829 10 0 57834 23400.00000 0 13784109.553 3438309.666 -21180896.066 10 0 57834 24300.00000 0 11442441.108 4756341.128 -22290427.727 10 0 57834 25200.00000 0 9116053.389 6309095.117 -22966831.221 10 0 57834 26100.00000 0 6869089.027 8066810.084 -23196940.048 10 0 57834 27000.00000 0 4759846.074 9988567.584 -22976258.867 10 0 57834 27900.00000 0 2838528.661 12023827.983 -22309052.440 10 0 57834 28800.00000 0 1145349.479 14114384.943 -21208264.713 10 0 57834 29700.00000 0 -290937.521 16196657.883 -19695269.377 10 0 57834 30600.00000 0 -1454013.805 18204227.330 -17799456.473 10 0 57834 31500.00000 0 -2340442.344 20070507.562 -15557662.716 10 0 57834 32400.00000 0 -2959565.498 21731445.081 -13013456.272 10 0 57834 33300.00000 0 -3332860.057 23128130.003 -10216289.550 10 0 57834 34200.00000 0 -3492777.638 24209210.824 -7220536.424 10 0 57834 35100.00000 0 -3481120.448 24933011.135 -4084432.599 10 0 57834 36000.00000 0 -3347022.045 25269259.181 -868939.953 10 0 57834 36900.00000 0 -3144619.509 25200357.411 2363442.585 10 0 57834 37800.00000 0 -2930516.498 24722138.535 5549897.946 10 0 57834 38700.00000 0 -2761145.536 23844076.286 8628515.389 10 0 57834 39600.00000 0 -2690141.973 22588942.128 11539496.038 10 0 57834 40500.00000 0 -2765841.524 20991922.544 14226315.649 10 0 57834 41400.00000 0 -3029007.797 19099234.164 16636821.829 10 0 57834 42300.00000 0 -3510886.310 16966295.070 18724244.254 10 0 57834 43200.00000 0 -4231667.544 14655528.996 20448098.639 10 0 57834 44100.00000 0 -5199424.174 12233894.213 21774967.323 10 0 57834 45000.00000 0 -6409567.595 9770240.156 22679141.979 10 0 57834 45900.00000 0 -7844847.024 7332601.560 23143116.702 10 0 57834 46800.00000 0 -9475891.836 4985542.148 23157922.643 10 0 57834 47700.00000 0 -11262275.096 2787657.605 22723298.251 10 0 57834 48600.00000 0 -13154054.611 789340.623 21847692.288 10 0 57834 49500.00000 0 -15093728.040 -969100.194 20548099.682 10 0 57834 50400.00000 0 -17018521.257 -2458890.486 18849733.352 10 0 57834 51300.00000 0 -18862915.303 -3663750.214 16785538.047 10 0 57834 52200.00000 0 -20561307.191 -4580324.866 14395555.114 10 0 57834 53100.00000 0 -22050693.883 -5218070.817 11726149.954 10 0 57834 54000.00000 0 -23273267.671 -5598600.739 8829116.546 10 0 57834 54900.00000 0 -24178814.464 -5754517.358 5760675.832 10 0 57834 55800.00000 0 -24726814.432 -5727785.360 2580387.080 10 0 57834 56700.00000 0 -24888156.669 -5567710.674 -650006.873 10 0 57834 57600.00000 0 -24646395.501 -5328612.960 -3867778.143 10 0 57834 58500.00000 0 -23998495.121 -5067290.132 -7010432.558 10 0 57834 59400.00000 0 -22955030.718 -4840382.645 -10016924.731 10 0 57834 60300.00000 0 -21539837.000 -4701749.559 -12828845.565 10 0 57834 61200.00000 0 -19789118.306 -4699967.918 -15391558.652 10 0 57834 62100.00000 0 -17750057.068 -4876061.833 -17655263.296 10 0 57834 63000.00000 0 -15478978.418 -5261557.894 -19575963.381 10 0 57834 63900.00000 0 -13039147.340 -5876949.782 -21116323.135 10 0 57834 64800.00000 0 -10498289.998 -6730637.645 -22246393.340 10 0 57834 65700.00000 0 -7925942.276 -7818387.852 -22944194.016 10 0 57834 66600.00000 0 -5390735.709 -9123336.819 -23196142.418 10 0 57834 67500.00000 0 -2957733.387 -10616539.768 -22997318.230 10 0 57834 68400.00000 0 -685926.222 -12258042.456 -22351560.815 10 0 57834 69300.00000 0 1374006.744 -13998431.872 -21271396.606 10 0 57834 70200.00000 0 3181581.387 -15780801.824 -19777797.825 10 0 57834 71100.00000 0 4707957.277 -17543051.790 -17899776.942 10 0 57834 72000.00000 0 5936892.509 -19220423.216 -15673824.380 10 0 57834 72900.00000 0 6865165.727 -20748167.242 -13143200.064 10 0 57834 73800.00000 0 7502448.764 -22064232.119 -10357092.259 10 0 57834 74700.00000 0 7870636.349 -23111857.331 -7369659.964 10 0 57834 75600.00000 0 8002662.306 -23841965.249 -4238977.484 10 0 57834 76500.00000 0 7940853.344 -24215249.429 -1025901.921 10 0 57834 77400.00000 0 7734891.061 -24203871.310 2207113.920 10 0 57834 78300.00000 0 7439469.457 -23792693.601 5397239.598 10 0 57834 79200.00000 0 7111748.044 -22979998.154 8482491.827 10 0 57834 80100.00000 0 6808709.228 -21777657.970 11402941.516 10 0 57834 81000.00000 0 6584532.530 -20210755.998 14101879.190 10 0 57834 81900.00000 0 6488097.315 -18316666.698 16526915.907 10 0 57834 82800.00000 0 6560719.968 -16143638.932 18630998.195 10 0 57834 83700.00000 0 6834221.366 -13748939.453 20373317.592 10 0 57834 84600.00000 0 7329406.329 -11196634.466 21720097.595 10 0 57834 85500.00000 0 8055019.243 -8555101.649 22645243.356 99